TimeEDT,TemperatureF,Dew PointF,Humidity,Sea Level PressureIn,VisibilityMPH,Wind Direction,Wind SpeedMPH,Gust SpeedMPH,PrecipitationIn,Events,Conditions,WindDirDegrees,DateUTC
12:53 AM,78.1,75.0,90,30.08,10.0,SE,5.8,-,N/A,,Clear,130,2013-08-19 04:53:00
1:53 AM,77.0,73.9,90,30.07,10.0,ESE,10.4,-,N/A,,Clear,110,2013-08-19 05:53:00
2:53 AM,77.0,75.0,94,30.05,10.0,East,4.6,-,N/A,,Partly Cloudy,100,2013-08-19 06:53:00
3:53 AM,77.0,73.9,90,30.03,10.0,East,6.9,-,N/A,,Clear,100,2013-08-19 07:53:00
4:53 AM,77.0,75.0,94,30.01,10.0,ESE,8.1,-,N/A,,Clear,110,2013-08-19 08:53:00
5:53 AM,77.0,73.9,90,30.01,10.0,East,6.9,-,N/A,,Clear,100,2013-08-19 09:53:00
6:53 AM,77.0,75.0,94,30.01,10.0,ESE,8.1,-,N/A,,Clear,110,2013-08-19 10:53:00
7:53 AM,78.1,75.9,93,30.04,10.0,East,6.9,-,N/A,,Scattered Clouds,100,2013-08-19 11:53:00
8:39 AM,80.6,77.0,89,30.05,10.0,ESE,6.9,-,N/A,,Partly Cloudy,110,2013-08-19 12:39:00
8:53 AM,81.0,77.0,88,30.05,10.0,ESE,8.1,-,N/A,,Partly Cloudy,110,2013-08-19 12:53:00
9:53 AM,84.0,77.0,79,30.06,10.0,SE,9.2,-,N/A,,Partly Cloudy,130,2013-08-19 13:53:00
10:53 AM,84.9,77.0,77,30.07,10.0,SE,12.7,-,N/A,,Partly Cloudy,130,2013-08-19 14:53:00
11:53 AM,87.1,75.9,69,30.07,10.0,SSE,8.1,-,N/A,,Scattered Clouds,150,2013-08-19 15:53:00
12:53 PM,89.1,75.0,63,30.05,10.0,SSE,8.1,-,N/A,,Partly Cloudy,150,2013-08-19 16:53:00
1:53 PM,89.1,73.9,61,30.03,10.0,ESE,9.2,-,N/A,,Partly Cloudy,110,2013-08-19 17:53:00
2:53 PM,90.0,75.0,61,30.01,10.0,NE,6.9,-,N/A,,Clear,50,2013-08-19 18:53:00
3:53 PM,91.0,73.9,57,29.99,10.0,NE,5.8,-,N/A,,Scattered Clouds,40,2013-08-19 19:53:00
4:53 PM,91.9,69.1,47,29.97,10.0,SSW,3.5,-,N/A,,Clear,210,2013-08-19 20:53:00
5:37 PM,91.4,71.6,52,29.97,10.0,Calm,Calm,-,N/A,,Partly Cloudy,0,2013-08-19 21:37:00
5:53 PM,88.0,75.0,65,29.98,10.0,SSW,9.2,-,N/A,Thunderstorm,Thunderstorm,210,2013-08-19 21:53:00
6:21 PM,78.8,71.6,78,30.02,10.0,West,15.0,29.9,0.00,Rain-Thunderstorm,Light Thunderstorms and Rain,280,2013-08-19 22:21:00
6:53 PM,75.0,73.0,94,30.01,4.0,NE,11.5,-,0.38,Rain-Thunderstorm,Thunderstorms and Rain,40,2013-08-19 22:53:00
7:30 PM,77.0,73.4,89,30.01,4.0,North,6.9,-,0.05,Rain-Thunderstorm,Rain,10,2013-08-19 23:30:00
7:53 PM,77.0,73.9,90,30.03,10.0,North,4.6,-,0.07,Rain-Thunderstorm,Light Rain,360,2013-08-19 23:53:00
8:03 PM,75.2,73.4,94,30.03,10.0,North,4.6,-,0.01,Rain,Light Rain,360,2013-08-20 00:03:00
8:12 PM,75.2,73.4,94,30.04,10.0,North,6.9,-,0.04,Rain-Thunderstorm,Light Rain,360,2013-08-20 00:12:00
8:27 PM,75.2,73.4,94,30.03,8.0,NNW,9.2,-,0.15,Rain,Light Rain,340,2013-08-20 00:27:00
8:53 PM,75.0,73.0,94,30.06,9.0,SSW,6.9,-,0.18,Rain,Rain,200,2013-08-20 00:53:00
9:53 PM,75.0,73.9,96,30.04,10.0,WSW,5.8,-,0.02,Rain,Light Rain,250,2013-08-20 01:53:00
10:53 PM,75.9,73.9,94,30.04,10.0,Calm,Calm,-,0.00,,Clear,0,2013-08-20 02:53:00
11:53 PM,75.9,73.9,94,30.06,10.0,South,4.6,-,N/A,,Clear,180,2013-08-20 03:53:00